Location: Wapato
(46.4478°N, 120.4212°W)
Time: 00:27:55
(UTC+00:00)

ARIANE 6 FM1 Upper Stage - Visible Passes

Search period start: 17 April 2026 00:00
Search period end: 27 April 2026 00:00
Orbit: 525 x 604 km, 62.0° (Epoch: 16 April)

Date Brightness Start Highest point End Pass type
(mag) Time Alt. Az. Time Alt. Az. Time Alt. Az.
17 Apr 5.4 03:55:03 10° WNW 03:57:50 17° NNW 04:00:34 10° NNE visible
17 Apr 5.5 07:17:17 10° N 07:19:09 13° NNE 07:19:49 12° NNE visible
17 Apr 5.4 08:55:15 10° NNW 08:55:46 13° NNW 08:55:46 13° NNW visible
18 Apr 5.5 03:55:21 10° WNW 03:57:40 15° NNW 03:59:57 10° N visible
18 Apr 5.3 07:16:38 10° NNW 07:19:00 15° NNE 07:19:04 15° NNE visible
18 Apr 5.5 08:54:47 10° NW 08:55:01 11° NW 08:55:01 11° NW visible
19 Apr 5.5 03:55:44 10° NW 03:57:31 12° NNW 03:59:18 10° N visible
19 Apr 5.1 07:16:01 10° NNW 07:18:22 18° NNE 07:18:22 18° NNE visible
20 Apr 5.6 03:56:16 10° NNW 03:57:24 11° NNW 03:58:31 10° N visible
20 Apr 5.0 07:15:27 10° NNW 07:17:41 20° NNE 07:17:41 20° NNE visible
21 Apr 5.6 05:37:33 10° N 05:38:06 10° NNE 05:38:39 10° NNE visible
21 Apr 4.9 07:14:53 10° NNW 07:17:03 23° N 07:17:03 23° N visible
22 Apr 5.4 05:36:34 10° N 05:37:59 12° NNE 05:39:24 10° NE visible
22 Apr 4.7 07:14:22 10° NNW 07:16:26 25° N 07:16:26 25° N visible
23 Apr 5.2 05:35:51 10° N 05:37:51 13° NNE 05:39:50 10° NE visible
23 Apr 4.6 07:13:52 10° NNW 07:15:50 26° NNW 07:15:50 26° NNW visible
24 Apr 5.0 05:35:11 10° NNW 05:37:41 16° NNE 05:39:17 13° NE visible
24 Apr 4.6 07:13:24 10° NW 07:15:15 26° NNW 07:15:15 26° NNW visible
25 Apr 4.7 05:34:34 10° NNW 05:37:28 19° NNE 05:38:43 17° NE visible
25 Apr 4.6 07:12:58 10° NW 07:14:41 25° NW 07:14:41 25° NW visible
26 Apr 4.3 05:33:59 10° NNW 05:37:14 23° NNE 05:38:11 21° NE visible
26 Apr 4.7 07:12:35 10° NW 07:14:09 22° NW 07:14:09 22° NW visible
